Date,TemperatureHighF,TemperatureAvgF,TemperatureLowF,DewpointHighF,DewpointAvgF,DewpointLowF,HumidityHigh,HumidityAvg,HumidityLow,PressureMaxIn,PressureMinIn,WindSpeedMaxMPH,WindSpeedAvgMPH,GustSpeedMaxMPH,PrecipitationSumIn
2013-1-1,42,34,29,38,33,29,99,96,85,30.49,30.34,2,0,6,0.01
2013-1-2,46,33,27,38,30,26,99,90,50,30.34,30.18,5,0,8,0.01
2013-1-3,44,33,25,36,30,24,98,88,55,30.18,30.08,6,1,11,0.35
2013-1-4,49,42,36,45,41,36,98,96,86,30.27,30.14,10,2,17,0.03
2013-1-5,44,41,39,43,40,38,99,95,82,30.17,30.09,6,1,11,0.07
2013-1-6,44,42,39,41,40,38,97,93,87,30.15,29.96,9,3,18,0.02
2013-1-7,52,46,42,48,44,40,97,93,85,30.12,29.76,14,3,20,0.02
2013-1-8,50,46,42,49,44,40,98,95,87,30.13,29.69,22,3,26,0.82
2013-1-9,50,41,35,48,40,34,98,96,93,29.93,29.64,11,2,19,0.79
2013-1-10,38,34,30,36,33,29,99,96,92,30.10,29.92,4,0,8,0.00
2013-1-11,40,31,26,31,28,25,98,89,66,30.31,30.10,3,0,7,0.01
2013-1-12,38,30,25,32,27,24,98,91,74,30.43,30.30,5,0,7,0.00
2013-1-13,36,29,24,31,27,24,98,93,73,30.48,30.42,2,0,3,0.00
2013-1-14,40,33,30,33,30,29,96,90,72,30.56,30.46,5,0,8,0.01
2013-1-15,41,34,29,37,32,28,98,92,79,30.69,30.55,1,0,5,0.00
2013-1-16,43,32,27,38,31,27,99,95,79,30.67,30.51,3,0,6,0.00
2013-1-17,36,33,29,36,33,28,99,98,97,30.51,30.28,3,0,3,0.00
2013-1-18,37,35,34,37,35,33,99,98,96,30.33,30.25,1,0,4,0.00
2013-1-19,38,36,35,36,35,34,98,96,93,30.37,30.33,2,0,5,0.00
2013-1-20,44,38,33,40,37,32,99,96,88,30.38,30.25,3,0,4,0.00
2013-1-21,38,36,35,37,35,34,98,97,93,30.26,30.12,3,0,5,0.00
2013-1-22,41,35,32,38,34,31,99,96,88,30.12,29.90,3,0,4,0.00
2013-1-23,42,40,37,41,39,36,98,94,83,30.12,29.83,6,1,13,0.31
2013-1-24,43,41,39,42,39,38,98,95,86,30.19,30.03,6,1,8,0.14
2013-1-25,52,45,39,46,42,37,98,92,75,30.04,29.89,9,2,15,0.03
2013-1-26,44,41,38,42,39,36,97,94,89,30.01,29.85,9,2,12,0.12
2013-1-27,41,39,34,39,37,33,99,95,91,30.03,29.97,8,1,12,0.01
2013-1-28,41,38,34,40,38,34,99,98,95,30.07,29.99,4,0,8,0.19
2013-1-29,46,43,40,46,42,40,99,98,96,30.31,30.07,6,0,8,0.27
2013-1-30,48,46,44,47,45,43,99,98,96,30.36,30.30,4,0,5,0.08
2013-1-31,49,46,45,46,45,45,99,96,90,30.37,30.27,11,1,15,0.07
2013-2-1,51,44,38,47,43,38,99,96,83,30.39,30.31,2,0,5,0.01
2013-2-2,44,42,39,42,40,38,99,95,90,30.37,30.24,3,0,7,0.00
2013-2-3,47,44,40,44,42,39,99,94,88,30.28,30.18,6,1,9,0.02
2013-2-4,50,45,43,44,42,41,96,90,80,30.19,29.86,6,1,10,0.01
2013-2-5,50,45,43,45,43,41,96,92,80,29.89,29.80,12,4,20,0.22
2013-2-6,49,44,42,43,42,40,96,92,79,30.02,29.77,10,3,17,0.14
2013-2-7,50,41,33,42,38,32,98,88,60,30.17,29.77,12,3,17,0.08
2013-2-8,44,38,30,40,36,30,99,93,80,30.29,30.17,1,0,5,0.00
2013-2-9,45,41,38,40,39,37,98,93,78,30.32,30.24,2,0,4,0.04
2013-2-10,41,39,35,40,38,34,99,98,98,30.36,30.32,1,0,1,0.00
2013-2-11,47,42,40,42,40,39,98,94,81,30.33,30.30,6,1,10,0.00
2013-2-12,50,46,42,47,44,41,98,94,86,30.38,30.24,11,2,18,0.02
2013-2-13,48,44,42,45,43,41,98,94,87,30.48,30.28,3,0,8,0.03
2013-2-14,46,44,42,45,43,40,98,95,91,30.54,30.47,6,1,8,0.02
2013-2-15,56,45,36,47,43,35,99,92,73,30.53,30.16,3,0,6,0.00
2013-2-16,51,44,35,46,42,34,99,93,79,30.17,30.09,5,1,10,0.02
2013-2-17,45,39,34,40,37,33,98,93,81,30.23,30.10,3,0,6,0.00
2013-2-18,46,40,33,39,36,33,98,89,73,30.09,29.75,9,1,12,0.00
2013-2-19,51,40,32,42,36,31,97,87,57,30.00,29.73,6,0,13,0.00
2013-2-20,44,38,31,40,37,30,98,94,83,30.02,29.97,8,1,16,0.14
2013-2-21,44,41,36,41,39,36,98,92,85,30.04,29.98,13,2,20,0.01
2013-2-22,48,42,36,45,39,33,95,90,73,30.02,29.64,22,6,25,0.19
2013-2-23,49,41,33,40,36,32,98,85,66,30.35,29.87,7,1,11,0.00
2013-2-24,46,43,39,40,38,36,89,82,72,30.35,29.93,14,4,21,0.04
2013-2-25,54,42,31,40,36,29,96,79,39,30.28,29.84,11,3,23,0.14
2013-2-26,47,40,31,38,36,29,98,84,65,30.32,30.17,14,2,19,0.01
2013-2-27,47,42,35,43,40,34,98,93,79,30.28,30.18,6,1,14,0.14
2013-2-28,52,46,41,50,45,41,98,97,92,30.29,30.17,9,2,17,0.26
2013-3-1,56,52,50,53,50,48,97,93,86,30.33,30.24,20,5,24,0.03
2013-3-2,55,49,39,50,46,38,96,89,79,30.24,30.04,11,3,19,0.08
2013-3-3,48,38,31,40,35,30,99,89,66,30.29,30.18,5,0,7,0.02
2013-3-4,53,39,29,39,34,29,98,83,49,30.29,29.91,4,0,9,0.01
2013-3-5,48,41,34,41,38,32,97,88,70,29.92,29.71,4,0,7,0.04
2013-3-6,43,41,40,42,40,39,98,96,92,29.87,29.57,4,0,8,0.42
2013-3-7,51,43,36,44,41,35,98,93,72,30.07,29.87,7,1,11,0.13
2013-3-8,54,43,33,44,40,32,98,89,64,30.23,30.06,3,0,8,0.00
2013-3-9,55,40,30,43,37,29,98,89,61,30.48,30.23,6,1,9,0.01
2013-3-10,47,41,34,42,39,33,98,93,77,30.48,30.41,3,0,6,0.01
2013-3-11,50,45,40,46,42,40,98,91,75,30.43,30.13,4,0,6,0.02
2013-3-12,53,50,46,52,49,46,97,93,85,30.13,30.04,16,6,22,0.04
2013-3-13,53,51,50,50,48,48,97,92,88,30.17,30.07,13,5,20,0.01
2013-3-14,54,50,48,48,46,44,97,88,72,30.11,30.00,17,4,22,0.02
2013-3-15,59,51,47,51,48,45,96,88,72,30.17,30.10,14,3,19,0.01
2013-3-16,52,46,34,46,42,33,96,87,65,30.11,29.85,18,3,23,0.00
2013-3-17,50,38,30,40,35,29,98,88,52,30.17,29.95,8,1,14,0.12
2013-3-18,53,43,34,43,37,33,94,81,56,30.22,30.08,11,2,20,0.00
2013-3-19,48,38,33,43,37,32,98,95,79,30.21,29.58,5,0,11,0.51
2013-3-20,51,46,36,49,42,33,98,86,64,29.98,29.34,21,5,33,0.66
2013-3-21,47,38,33,42,35,31,97,88,68,30.19,29.99,6,1,11,0.10
2013-3-22,48,36,30,37,33,29,98,87,57,30.36,30.19,4,0,7,0.04
2013-3-23,50,38,30,37,32,28,98,83,50,30.38,30.29,6,0,10,0.00
2013-3-24,55,40,29,39,33,28,98,80,38,30.28,30.11,4,0,6,0.00
2013-3-25,62,46,31,38,34,27,97,67,32,30.11,29.92,5,0,7,0.00
2013-3-26,59,48,42,46,41,37,90,76,56,30.00,29.94,4,0,6,0.00
2013-3-27,56,47,41,48,42,39,97,85,64,29.97,29.92,4,0,6,0.01
2013-3-28,58,47,40,51,45,39,98,92,75,30.13,29.97,5,0,7,0.14
2013-3-29,64,51,41,51,45,40,98,83,57,30.23,30.13,4,0,7,0.01
2013-3-30,66,50,35,52,44,34,98,81,52,30.24,30.06,7,0,12,0.00
2013-3-31,69,52,38,49,43,37,98,74,42,30.06,29.89,7,0,10,0.00
2013-4-1,62,51,42,51,46,40,95,84,56,30.13,29.94,8,2,14,0.00
2013-4-2,59,50,44,49,45,42,94,84,66,30.17,30.13,8,2,13,0.00
2013-4-3,60,50,41,50,45,40,97,84,60,30.18,29.94,5,0,7,0.00
2013-4-4,54,50,46,52,48,44,97,94,89,29.94,29.62,8,1,14,0.42
2013-4-5,57,52,47,51,48,46,97,90,77,29.83,29.69,13,5,24,0.32
2013-4-6,54,48,44,48,45,42,97,90,75,29.89,29.66,14,5,22,0.33
2013-4-7,48,43,40,45,42,39,97,95,86,29.87,29.50,6,1,13,0.96
2013-4-8,56,47,41,48,43,40,98,89,65,30.25,29.87,6,1,8,0.07
2013-4-9,53,48,42,45,43,40,97,83,66,30.33,30.16,7,2,12,0.00
2013-4-10,61,52,46,53,47,42,96,84,68,30.23,29.90,13,3,17,0.19
2013-4-11,54,46,40,46,42,39,95,85,62,30.28,30.17,5,0,6,0.09
2013-4-12,45,42,38,44,40,37,98,92,77,30.17,29.64,10,3,19,0.12
2013-4-13,51,42,35,46,40,34,97,90,70,29.98,29.72,9,2,18,0.29
2013-4-14,54,43,35,43,38,34,98,85,53,29.99,29.91,4,1,9,0.04
2013-4-15,57,45,33,45,39,32,98,82,55,30.17,29.93,7,1,11,0.00
2013-4-16,59,45,33,45,38,32,98,80,50,30.38,30.17,6,0,10,0.00
2013-4-17,58,46,35,46,40,34,97,80,50,30.43,30.38,6,1,14,0.00
2013-4-18,50,46,41,47,43,38,93,88,82,30.43,30.17,19,3,19,0.01
2013-4-19,54,50,48,52,49,47,97,95,92,30.17,30.03,20,2,21,0.38
2013-4-20,55,48,45,51,46,44,97,94,83,30.26,30.16,3,0,7,0.11
2013-4-21,54,46,39,48,43,37,97,90,72,30.35,30.21,4,0,8,0.02
2013-4-22,61,47,34,45,36,27,98,72,28,30.51,30.35,6,1,15,0.00
2013-4-23,64,48,32,42,35,27,97,67,26,30.41,30.23,5,0,11,0.00
2013-4-24,69,52,36,47,39,32,98,67,26,30.31,30.04,5,0,7,0.00
2013-4-25,72,55,39,48,42,37,95,66,32,30.12,30.02,6,1,10,0.00
2013-4-26,67,52,41,55,46,40,97,82,58,30.24,30.13,7,1,9,0.00
2013-4-27,56,52,49,49,46,43,89,80,71,30.18,30.12,13,3,26,0.00
2013-4-28,59,51,46,50,46,41,95,83,60,30.19,29.92,14,2,21,0.00
2013-4-29,58,48,43,46,42,37,96,82,54,30.14,29.88,9,1,11,0.16
2013-4-30,54,45,35,40,36,33,96,74,49,30.42,30.14,5,1,11,0.00
2013-5-1,65,48,32,42,35,28,98,67,29,30.57,30.43,5,0,8,0.00
2013-5-2,67,52,36,47,40,34,97,67,38,30.53,30.35,7,1,14,0.00
2013-5-3,72,57,44,51,45,40,92,67,40,30.37,30.21,7,1,13,0.00
2013-5-4,79,62,47,51,45,39,92,60,27,30.22,29.98,6,1,13,0.00
2013-5-5,84,64,46,51,47,42,91,59,24,29.98,29.75,5,0,10,0.00
2013-5-6,88,65,47,52,48,45,95,61,27,29.83,29.73,6,1,7,0.00
2013-5-7,71,58,49,56,51,47,95,80,58,29.98,29.80,6,2,12,0.00
2013-5-8,66,55,48,54,50,47,96,84,64,30.12,29.98,6,2,9,0.00
2013-5-9,71,54,44,57,50,43,98,86,59,30.21,30.10,4,0,8,0.00
2013-5-10,77,59,43,60,51,43,98,76,44,30.18,30.09,4,0,7,0.00
2013-5-11,80,61,49,57,51,47,95,73,42,30.15,29.97,6,1,11,0.00
2013-5-12,68,61,55,57,55,51,94,82,66,30.07,29.98,9,3,15,0.04
2013-5-13,63,56,48,56,50,40,92,80,56,30.15,29.91,17,4,35,0.04
2013-5-14,65,53,43,47,44,40,96,73,42,30.20,30.09,10,1,10,0.00
2013-5-15,64,52,42,51,46,41,97,82,54,30.10,29.99,7,1,12,0.03
2013-5-16,71,59,51,55,52,50,97,80,55,29.99,29.85,5,1,11,0.01
2013-5-17,65,56,50,52,50,48,94,79,57,30.03,29.92,9,2,14,0.00
2013-5-18,62,54,47,51,48,45,95,81,62,30.25,30.03,8,2,12,0.01
2013-5-19,65,55,47,53,50,45,96,83,62,30.38,30.25,3,0,6,0.00
2013-5-20,68,53,41,52,47,40,98,82,54,30.34,29.89,8,1,11,0.00
2013-5-21,54,49,45,52,47,44,96,94,88,29.89,29.76,3,0,8,0.82
2013-5-22,52,48,45,49,46,44,97,94,83,29.92,29.83,5,1,7,0.10
2013-5-23,54,48,44,48,45,43,97,89,71,29.99,29.91,8,2,14,0.05
2013-5-24,62,52,42,51,47,41,98,82,60,30.02,29.95,8,2,12,0.00
2013-5-25,63,54,49,51,48,46,95,81,56,30.02,29.95,8,2,12,0.02
2013-5-26,63,54,48,56,50,47,97,89,69,29.97,29.93,9,2,15,0.10
2013-5-27,58,54,50,56,52,48,96,93,89,29.94,29.68,7,2,11,0.28
2013-5-28,64,55,51,53,50,47,93,82,63,29.85,29.75,17,4,21,0.01
2013-5-29,57,52,49,54,50,47,97,91,84,29.94,29.67,4,0,7,0.25
2013-5-30,61,54,48,52,48,45,92,81,64,30.22,29.94,15,3,24,0.01
2013-5-31,67,54,45,52,47,44,97,79,50,30.32,30.22,6,0,8,0.00
2013-6-1,71,58,46,54,49,44,95,75,46,30.23,30.04,6,1,10,0.00
2013-6-2,69,60,51,54,51,48,94,74,57,30.07,30.02,5,1,10,0.00
2013-6-3,73,57,46,58,52,45,97,83,56,30.10,30.04,4,1,8,0.00
2013-6-4,80,62,44,57,51,44,98,72,38,30.11,30.00,4,1,10,0.00
2013-6-5,75,62,49,61,54,48,96,77,55,30.07,30.01,4,0,8,0.00
2013-6-6,78,62,48,56,52,47,97,71,38,30.04,29.98,3,0,7,0.00
2013-6-7,66,58,50,55,51,47,90,78,61,30.13,30.00,7,1,12,0.00
2013-6-8,68,59,53,54,50,47,84,74,57,30.17,30.08,4,1,7,0.00
2013-6-9,67,56,49,54,49,46,94,77,55,30.10,30.01,4,0,9,0.00
2013-6-10,70,57,44,53,48,42,96,74,47,30.01,29.86,5,1,9,0.00
2013-6-11,66,56,51,56,48,45,89,76,49,30.07,29.92,9,2,25,0.07
2013-6-12,67,56,45,50,48,43,97,76,48,30.12,30.07,11,2,16,0.00
2013-6-13,68,58,48,53,50,47,95,77,52,30.19,30.12,5,0,7,0.00
2013-6-14,68,57,51,52,50,48,93,78,57,30.21,30.04,7,1,9,0.00
2013-6-15,74,60,46,55,51,45,97,74,43,30.04,29.90,8,0,10,0.00
2013-6-16,72,60,48,59,53,47,97,81,58,30.06,29.97,6,1,9,0.00
2013-6-17,77,61,50,57,52,48,97,76,41,30.07,29.87,8,1,15,0.03
2013-6-18,74,62,53,54,50,46,95,70,38,29.95,29.84,10,2,13,0.00
2013-6-19,65,58,51,55,52,48,94,81,66,29.98,29.89,5,0,10,0.00
2013-6-20,62,56,53,56,52,50,97,88,75,30.08,29.92,4,0,6,0.31
2013-6-21,70,59,52,58,53,50,97,82,52,30.14,30.08,4,0,8,0.01
2013-6-22,77,62,47,58,53,46,98,75,46,30.10,29.83,6,1,8,0.00
2013-6-23,72,62,56,63,58,53,96,87,68,29.83,29.57,3,0,4,0.08
2013-6-24,69,61,56,59,56,54,97,84,62,29.67,29.55,9,3,16,0.06
2013-6-25,73,61,56,61,56,54,97,86,57,29.82,29.65,9,2,17,0.65
2013-6-26,69,61,55,62,58,54,97,88,71,30.05,29.82,9,2,12,0.10
2013-6-27,67,62,57,64,60,56,97,94,90,30.17,30.02,4,0,7,0.14
2013-6-28,84,68,56,69,62,56,98,82,56,30.17,30.01,5,1,11,0.00
2013-6-29,84,69,60,68,62,58,96,80,54,30.07,29.96,5,1,7,0.00
2013-6-30,92,72,55,69,62,53,97,74,41,29.99,29.82,4,0,9,0.00
2013-7-1,85,71,59,68,62,57,95,75,53,29.99,29.88,4,0,8,0.00
2013-7-2,78,66,56,64,58,53,97,77,50,30.08,29.99,5,1,8,0.00
2013-7-3,77,65,56,60,54,50,88,68,42,30.13,30.02,4,0,9,0.00
2013-7-4,72,62,54,57,54,52,93,78,54,30.10,30.00,11,1,12,0.00
2013-7-5,75,63,50,60,56,49,97,79,56,30.01,29.92,7,1,12,0.00
2013-7-6,78,62,50,60,54,50,98,79,45,29.95,29.84,5,0,8,0.00
2013-7-7,75,62,51,62,57,50,98,84,63,29.92,29.85,6,1,10,0.00
2013-7-8,79,62,54,62,56,52,94,83,54,30.07,29.92,7,1,8,0.00
2013-7-9,84,66,52,63,56,51,97,74,43,30.09,29.97,3,0,6,0.00
2013-7-10,74,61,52,59,54,50,97,80,60,30.05,29.93,6,1,10,0.00
2013-7-11,69,60,54,54,50,48,83,72,51,30.06,29.97,5,1,8,0.00
2013-7-12,67,57,48,56,51,46,95,82,58,30.08,29.99,4,0,7,0.00
2013-7-13,79,60,45,56,50,44,98,72,35,30.18,30.08,6,0,9,0.00
2013-7-14,81,63,46,58,51,45,98,68,35,30.12,29.97,4,0,7,0.00
2013-7-15,81,64,49,57,51,47,97,66,35,30.02,29.87,7,1,13,0.00
2013-7-16,86,69,53,58,53,48,84,59,32,29.87,29.78,8,0,11,0.00
2013-7-17,73,64,56,59,56,53,90,75,59,30.16,29.84,10,2,16,0.00
2013-7-18,78,64,53,61,56,52,95,77,54,30.20,30.10,5,0,6,0.00
2013-7-19,78,63,50,63,56,49,97,81,57,30.15,30.02,0,0,1,0.00
2013-7-20,77,61,54,63,56,52,96,85,60,30.07,29.93,0,0,0,0.00
2013-7-21,75,61,50,62,56,49,97,85,62,29.96,29.88,0,0,0,0.00
2013-7-22,81,64,55,64,57,53,96,81,53,30.04,29.91,0,0,0,0.00
2013-7-23,85,65,52,62,55,50,97,75,34,30.05,29.94,0,0,1,0.00
2013-7-24,83,65,50,60,54,49,97,71,36,30.03,29.97,4,0,8,0.00
2013-7-25,82,65,48,61,54,47,97,73,45,30.08,30.01,5,0,7,0.00
2013-7-26,83,65,49,60,53,48,97,70,38,30.13,30.05,4,1,6,0.00
2013-7-27,78,62,48,56,52,47,97,72,43,30.14,29.97,5,1,9,0.00
2013-7-28,71,59,50,58,53,49,96,83,61,30.00,29.93,6,2,13,0.00
2013-7-29,76,63,53,58,54,51,93,76,51,29.98,29.92,6,1,9,0.00
2013-7-30,77,62,52,61,55,50,97,80,55,30.11,29.98,7,1,9,0.00
2013-7-31,70,60,51,61,56,50,97,89,73,30.10,29.97,5,0,8,0.00
2013-8-1,70,61,55,58,56,53,95,82,64,30.03,30.00,9,2,12,0.00
2013-8-2,60,59,57,59,57,54,97,92,86,30.11,30.02,5,1,9,0.22
2013-8-3,76,64,56,63,58,54,97,84,55,30.11,30.03,3,0,7,0.00
2013-8-4,81,65,51,64,57,50,98,80,52,30.04,29.92,4,0,7,0.00
2013-8-5,83,66,53,64,58,52,98,78,48,29.99,29.90,4,0,7,0.00
2013-8-6,83,65,49,61,55,48,97,73,41,29.98,29.89,3,0,8,0.00
2013-8-7,85,66,50,62,56,49,97,74,39,29.99,29.92,5,1,8,0.00
2013-8-8,81,63,54,62,57,53,96,81,51,30.01,29.91,7,1,8,0.00
2013-8-9,82,66,52,62,57,51,97,76,46,29.93,29.81,3,0,8,0.00
2013-8-10,77,64,58,66,60,57,96,87,67,29.99,29.86,6,1,10,0.24
2013-8-11,76,63,56,60,56,54,94,79,56,30.04,29.96,5,1,10,0.00
2013-8-12,77,64,54,61,56,52,94,78,51,30.05,29.97,6,1,10,0.00
2013-8-13,80,64,53,61,56,52,97,77,46,30.08,29.90,5,1,7,0.00
2013-8-14,79,63,51,63,57,50,97,82,47,29.93,29.87,6,1,13,0.04
2013-8-15,69,64,59,65,62,58,97,95,89,29.96,29.89,4,0,7,0.04
2013-8-16,82,68,59,66,61,56,98,80,42,29.98,29.91,7,1,9,0.01
2013-8-17,78,65,58,63,59,55,93,80,57,30.05,29.97,8,1,11,0.00
2013-8-18,76,64,55,62,57,53,94,81,60,30.09,30.05,7,1,12,0.00
2013-8-19,79,64,56,61,57,53,93,77,51,30.08,30.04,7,1,10,0.00
2013-8-20,78,65,54,59,53,50,89,68,40,30.14,30.05,5,1,16,0.00
2013-8-21,80,63,46,58,52,45,98,71,41,30.06,29.91,5,0,11,0.00
2013-8-22,84,66,49,59,55,48,96,69,38,29.92,29.77,5,0,8,0.00
2013-8-23,76,66,60,59,57,56,88,74,52,29.85,29.79,9,2,17,0.00
2013-8-24,75,64,53,59,57,51,93,79,51,29.89,29.83,4,0,8,0.00
2013-8-25,71,60,49,58,54,49,98,81,59,29.92,29.84,3,0,7,0.00
2013-8-26,76,63,55,60,56,53,94,78,45,29.93,29.82,11,1,16,0.00
2013-8-27,78,66,59,63,58,55,91,77,56,29.93,29.77,6,1,10,0.00
2013-8-28,78,67,58,67,61,56,97,84,61,29.86,29.80,5,1,9,0.19
2013-8-29,73,65,60,67,63,59,98,94,77,29.97,29.82,5,1,11,1.04
2013-8-30,78,65,56,62,59,54,97,81,47,30.11,29.97,8,2,13,0.01
2013-8-31,80,63,50,63,56,49,98,81,50,30.06,29.81,5,0,9,0.00
2013-9-1,81,64,53,64,58,52,98,81,49,29.86,29.76,5,1,10,0.00
2013-9-2,81,65,55,64,58,54,97,80,51,29.91,29.83,4,0,8,0.00
2013-9-3,76,63,56,67,60,55,97,90,61,30.00,29.91,3,0,4,0.21
2013-9-4,70,61,54,65,59,54,98,92,80,30.03,29.97,4,0,7,0.00
2013-9-5,70,61,56,64,59,55,98,94,76,30.02,29.90,2,0,8,0.21
2013-9-6,70,63,59,65,61,57,98,93,81,30.08,29.91,5,1,8,1.06
2013-9-7,75,63,57,65,60,56,98,90,69,30.08,29.99,3,0,5,0.00
2013-9-8,80,64,52,67,59,52,98,85,59,30.08,30.00,3,0,6,0.00
2013-9-9,78,62,55,66,58,54,98,88,61,30.05,29.95,5,0,5,0.00
2013-9-10,78,63,54,66,59,54,98,87,61,29.97,29.86,3,0,8,0.01
2013-9-11,89,69,55,68,60,53,97,77,42,29.92,29.84,5,0,8,0.00
2013-9-12,79,64,55,66,59,54,98,87,62,29.97,29.87,5,0,6,0.00
2013-9-13,65,60,56,61,59,55,98,94,88,29.94,29.85,2,0,5,0.01
2013-9-14,70,62,55,62,59,54,97,91,76,29.85,29.71,2,0,5,0.00
2013-9-15,64,59,54,62,58,53,98,96,90,29.79,29.69,6,1,8,0.15
2013-9-16,66,60,56,61,58,55,97,94,83,29.90,29.77,7,2,12,0.09
2013-9-17,62,57,50,57,54,49,98,92,79,29.91,29.84,2,0,4,0.00
2013-9-18,72,57,48,56,52,47,98,85,51,30.05,29.91,7,1,9,0.00
2013-9-19,80,60,45,60,51,45,98,78,35,30.02,29.73,2,0,5,0.00
2013-9-20,72,59,47,58,53,46,97,84,58,29.72,29.56,7,1,14,0.08
2013-9-21,68,58,51,60,55,50,98,90,70,29.69,29.62,4,0,10,0.01
2013-9-22,61,57,54,57,54,52,96,91,83,29.69,29.53,10,3,16,0.31
2013-9-23,64,55,49,56,52,47,96,91,75,29.94,29.69,12,2,14,0.18
2013-9-24,63,53,47,54,49,46,98,88,58,29.93,29.81,7,1,10,0.00
2013-9-25,63,52,45,54,49,44,97,89,63,30.00,29.84,10,2,10,0.06
2013-9-26,64,48,41,53,46,40,98,93,63,30.10,30.00,4,0,7,0.00
2013-9-27,57,53,45,53,51,44,98,92,85,30.08,29.81,15,3,20,0.03
2013-9-28,59,55,51,58,54,49,98,95,92,29.81,29.30,14,3,19,1.29
2013-9-29,54,52,51,52,50,48,96,94,89,29.51,29.12,13,4,23,1.35
2013-9-30,59,52,48,53,48,45,97,89,73,29.88,29.38,11,3,19,0.06
2013-10-1,59,51,46,50,47,44,97,87,67,30.08,29.87,14,3,17,0.15
2013-10-2,54,50,46,50,48,45,98,93,84,30.15,30.03,6,1,10,0.23
2013-10-3,60,50,42,52,47,41,98,92,70,30.43,30.16,5,0,6,0.01
2013-10-4,62,49,41,52,47,40,98,91,68,30.45,30.33,4,0,5,0.00
2013-10-5,71,52,42,56,48,42,98,87,55,30.33,30.11,2,0,5,0.01
2013-10-6,73,56,40,56,47,40,98,78,38,30.11,29.85,13,2,19,0.04
2013-10-7,63,55,48,54,50,46,95,85,56,29.98,29.85,10,2,14,0.00
2013-10-8,56,48,42,54,46,41,98,94,78,30.05,29.94,2,0,11,0.28
2013-10-9,61,47,39,51,44,38,98,91,67,30.11,29.93,3,0,5,0.01
2013-10-10,58,50,44,51,47,43,98,92,76,30.05,29.91,2,0,5,0.00
2013-10-11,56,50,47,51,48,46,98,93,82,30.12,30.04,3,0,5,0.00
2013-10-12,59,49,42,52,47,42,98,93,73,30.19,30.04,4,0,9,0.06
2013-10-13,59,47,40,51,45,40,98,92,71,30.34,30.19,3,0,5,0.01
2013-10-14,60,47,39,51,44,38,98,91,68,30.41,30.34,2,0,8,0.00
2013-10-15,63,47,39,53,45,38,98,93,69,30.37,30.16,5,0,5,0.01
2013-10-16,58,48,41,52,46,40,98,94,80,30.18,30.12,3,0,7,0.00
2013-10-17,59,48,41,52,46,40,98,93,75,30.25,30.18,4,0,5,0.00
2013-10-18,58,46,41,52,45,40,98,95,77,30.23,30.13,2,0,5,0.00
2013-10-19,49,45,40,48,45,40,98,97,93,30.17,30.12,3,0,5,0.01
2013-10-20,49,48,46,48,46,46,98,96,94,30.18,30.13,2,0,5,0.00
2013-10-21,50,48,46,49,47,46,98,97,94,30.15,30.08,2,0,6,0.00
2013-10-22,54,48,46,50,47,46,98,96,87,30.10,30.01,2,0,5,0.00
2013-10-23,60,48,41,54,46,40,98,94,78,30.03,29.96,2,0,4,0.00
2013-10-24,49,46,40,49,45,40,98,98,96,30.10,30.00,2,0,3,0.01
2013-10-25,53,48,42,50,47,41,98,97,89,30.29,30.10,4,0,6,0.05
2013-10-26,55,48,42,51,47,41,99,94,81,30.31,30.16,2,0,5,0.00
2013-10-27,60,51,46,52,46,42,98,85,62,30.17,29.87,10,1,15,0.15
2013-10-28,58,52,42,42,36,32,80,56,40,29.92,29.86,8,1,23,0.00
2013-10-29,61,44,34,44,38,33,98,82,48,30.01,29.92,3,0,5,0.00
2013-10-30,54,46,35,48,42,34,98,87,75,30.10,30.00,6,1,14,0.00
2013-10-31,55,50,49,51,48,44,97,90,81,30.23,30.05,11,1,21,0.00
2013-11-1,59,53,49,52,50,48,97,90,76,30.24,29.80,4,0,7,0.01
2013-11-2,52,49,40,50,45,39,97,88,68,29.85,29.42,14,2,27,0.34
2013-11-3,52,40,33,44,38,32,98,92,64,30.09,29.85,3,0,6,0.02
2013-11-4,49,41,34,44,38,33,98,90,64,30.17,30.03,4,0,7,0.03
2013-11-5,48,46,42,47,45,41,98,96,94,30.23,29.98,4,0,7,0.02
2013-11-6,51,46,40,47,44,39,98,95,84,30.30,30.00,1,0,3,0.07
2013-11-7,51,48,46,50,47,45,98,96,92,30.00,29.67,12,3,26,0.68
2013-11-8,56,46,40,49,44,39,98,92,74,30.13,29.93,2,0,6,0.00
2013-11-9,50,45,40,46,44,39,98,95,84,30.12,30.05,2,0,4,0.07
2013-11-10,49,46,44,47,45,42,98,95,91,30.14,30.07,4,0,10,0.09
2013-11-11,59,46,40,50,44,40,98,93,69,30.14,29.98,3,0,5,0.00
2013-11-12,58,52,43,55,50,42,98,93,84,30.31,29.99,11,2,16,0.17
2013-11-13,56,51,48,51,49,47,97,92,77,30.40,30.29,14,1,18,0.00
2013-11-14,49,46,39,48,45,39,98,97,92,30.28,30.03,2,0,5,0.09
2013-11-15,48,44,41,47,43,40,98,95,88,30.03,29.29,14,2,27,0.08
2013-11-16,48,41,33,44,39,32,99,90,76,29.74,29.31,6,0,8,0.00
2013-11-17,52,46,39,48,43,37,95,91,82,29.85,29.74,17,3,21,0.01
2013-11-18,51,49,46,50,48,44,98,95,90,29.86,29.51,10,2,17,0.75
2013-11-19,52,42,36,51,40,28,98,93,73,30.04,29.50,10,0,21,0.15
2013-11-20,44,35,29,36,30,28,96,83,60,30.49,30.05,4,0,9,0.00
2013-11-21,44,34,28,34,29,27,97,85,61,30.65,30.49,2,0,7,0.01
2013-11-22,46,34,27,38,31,26,98,90,69,30.63,30.43,4,0,8,0.00
2013-11-23,50,37,29,42,34,28,98,92,69,30.43,30.18,3,0,6,0.01
2013-11-24,52,38,32,45,37,31,98,95,77,30.23,30.15,2,0,4,0.00
2013-11-25,53,40,35,45,38,34,98,94,69,30.29,30.23,4,0,5,0.01
2013-11-26,53,42,33,43,39,32,98,90,67,30.25,30.07,5,0,9,0.00
2013-11-27,54,44,36,47,41,35,98,89,73,30.07,29.94,2,0,5,0.00
2013-11-28,44,37,33,44,37,32,98,98,96,30.16,30.01,2,0,4,0.01
2013-11-29,48,42,34,45,41,33,99,97,90,30.28,30.16,2,0,5,0.01
2013-11-30,49,48,45,47,45,44,97,92,86,30.29,30.05,11,3,18,0.01
2013-12-1,53,50,43,51,48,40,97,91,84,30.04,29.70,11,3,21,0.02
2013-12-2,45,38,32,40,34,30,97,89,63,30.04,29.78,6,1,10,0.07
2013-12-3,40,33,26,29,25,22,90,71,52,30.29,30.04,11,1,15,0.00
2013-12-4,39,29,23,30,25,22,96,85,59,30.33,30.27,3,0,7,0.00
2013-12-5,32,26,22,30,24,20,97,91,73,30.31,30.18,2,0,4,0.00
2013-12-6,35,28,23,20,14,10,72,56,42,30.22,30.13,4,0,8,0.00
2013-12-7,32,24,16,15,12,8,89,62,43,30.41,30.22,7,0,9,0.00
2013-12-8,33,24,16,22,18,13,93,80,53,30.56,30.41,3,0,5,0.00
2013-12-9,32,28,19,27,23,17,94,83,71,30.57,30.48,4,0,6,0.00
2013-12-10,38,34,30,34,31,28,96,92,86,30.48,30.40,2,0,4,0.00
2013-12-11,37,32,28,36,32,28,98,97,96,30.40,30.14,1,0,2,0.00
2013-12-12,42,37,30,40,36,30,98,94,82,30.14,30.02,10,2,13,0.03
2013-12-13,46,44,42,45,43,40,97,95,94,30.38,30.09,6,1,10,0.00
2013-12-14,48,46,44,45,44,42,96,92,88,30.40,30.28,10,2,16,0.00
2013-12-15,50,47,45,48,46,44,98,95,91,30.43,30.28,16,2,21,0.08
2013-12-16,51,43,36,46,42,36,98,96,84,30.47,30.25,3,0,4,0.00
2013-12-17,42,40,39,41,40,39,98,97,95,30.25,30.08,4,0,8,0.01
2013-12-18,42,39,33,41,37,31,98,93,78,30.14,30.00,4,0,8,0.04
2013-12-19,40,34,31,33,28,23,94,78,57,30.33,30.13,10,0,10,0.00
2013-12-20,40,36,31,40,34,29,98,94,78,30.18,29.68,15,2,27,0.10
2013-12-21,42,41,40,42,40,39,98,98,96,30.14,29.82,1,0,2,0.12
2013-12-22,49,44,42,48,44,41,99,98,95,30.26,30.13,13,1,22,0.13
2013-12-23,55,47,37,50,45,36,98,92,80,30.48,30.08,16,3,25,0.00
2013-12-24,47,37,31,42,36,30,99,95,78,30.60,30.49,2,0,3,0.00
2013-12-25,44,36,30,39,35,29,98,95,82,30.52,30.38,3,0,5,0.01
2013-12-26,45,36,30,41,35,30,98,96,85,30.39,30.19,2,0,4,0.00
2013-12-27,45,39,30,44,38,30,99,98,93,30.35,30.08,6,0,10,0.04
2013-12-28,48,41,34,45,40,34,99,97,89,30.51,30.34,1,0,3,0.00
2013-12-29,43,39,34,41,39,34,98,97,91,30.46,30.29,2,0,5,0.01
2013-12-30,43,40,37,41,40,37,99,97,95,30.30,30.10,4,0,9,0.00
2013-12-31,45,42,37,43,41,37,99,97,92,30.35,30.17,2,0,3,0.00
2014-1-1,43,41,36,42,40,35,99,98,95,30.39,30.22,2,0,3,0.02
2014-1-2,51,45,40,45,42,40,99,92,70,30.23,29.85,11,2,20,0.34